Location: De Har
(53.3413°N, 6.6858°E)
Time: 20:54:39
(UTC+00:00)

NOSS 3-3 (A) - Pass Details

Date: 22 April 2026
Orbit: 691 x 1518 km, 63.4° (Epoch: 11 January)

Event Time Altitude Azimuth Distance (km) Brightness Sun altitude
Exits shadow 01:14:12 32° 162° (SSE) 1,358 4.4 -21.0°
Maximum altitude 01:15:54 41° 121° (ESE) 1,206 4.4 -20.8°
Drops below altitude 10° 01:21:39 10° 54° (NE) 2,718 7.3 -20.4°
Sets 01:24:37 0° 48° (NE) 3,809 8.4 -20.2°
